This demonstration page uses our WeatherBlox Daily Observations layout. Learn more.

Left ArrowRight Arrow

36.19886, -115.1175

Hourly Observations for December 28, 2015

Temp ( °F °C ) Dew Point ( °F °C ) Humidity (%) Winds ( mph kmh ) Pressure ( in mb ) Visibility ( mi km ) Precip ( " mm )
12:53 am 00:53 Clear 32 0 10 -12.2 40 40 NW 3 6 30.09 1019 10 16 0.00 0.00
1:53 am 01:53 Clear 31 -0.6 9 -12.8 40 40 Calm 30.08 1019 10 16 0.00 0.00
2:53 am 02:53 Clear 32 0 9 -12.8 38 38 Calm 30.06 1018 10 16 0.00 0.00
3:53 am 03:53 Clear 32 0 11 -11.7 41 41 Calm 30.04 1017 10 16 0.00 0.00
4:53 am 04:53 Clear 32 0 10 -12.2 40 40 NNW 3 6 30.03 1017 10 16 0.00 0.00
5:53 am 05:53 Clear 31 -0.6 10 -12.2 42 42 N 7 11 30.02 1017 10 16 0.00 0.00
6:53 am 06:53 Sunny 30 -1.1 9 -12.8 41 41 Calm 30.02 1017 10 16 0.00 0.00
7:53 am 07:53 Sunny 31 -0.6 9 -12.8 40 40 NW 5 7 30.01 1016 10 16 0.00 0.00
8:53 am 08:53 Sunny 36 2.2 8 -13.3 31 31 Calm 30.01 1016 10 16 0.00 0.00
9:53 am 09:53 Sunny 40 4.4 9 -12.8 28 28 Calm 30.00 1016 10 16 0.00 0.00
10:53 am 10:53 Sunny 41 5 8 -13.3 25 25 Calm 29.98 1015 10 16 0.00 0.00
11:53 am 11:53 Sunny 43 6.1 7 -13.9 22 22 ESE 6 9 29.92 1013 10 16 0.00 0.00
12:53 pm 12:53 Sunny 44 6.7 7 -13.9 22 22 Calm 29.89 1012 10 16 0.00 0.00
1:53 pm 13:53 Sunny 46 7.8 6 -14.4 19 19 ENE 5 7 29.86 1011 10 16 0.00 0.00
2:53 pm 14:53 Sunny 46 7.8 5 -15 18 18 Calm 29.84 1011 10 16 0.00 0.00
3:53 pm 15:53 Sunny 46 7.8 5 -15 18 18 E 3 6 29.83 1010 10 16 0.00 0.00
4:53 pm 16:53 Mostly Cloudy 44 6.7 5 -15 20 20 N 3 6 29.84 1011 10 16 0.00 0.00
5:53 pm 17:53 Clear 43 6.1 8 -13.3 24 24 Calm 29.86 1011 10 16 0.00 0.00
6:53 pm 18:53 Cloudy 41 5 8 -13.3 25 25 Calm 29.87 1012 10 16 0.00 0.00
7:53 pm 19:53 Mostly Cloudy 40 4.4 10 -12.2 29 29 NNW 6 9 29.88 1012 10 16 0.00 0.00
8:53 pm 20:53 Mostly Cloudy 41 5 14 -10 33 33 NNW 10 17 29.88 1012 10 16 0.00 0.00
9:53 pm 21:53 Cloudy 43 6.1 20 -6.7 40 40 NNW 20 31 29.87 1012 10 16 0.00 0.00
10:53 pm 22:53 Mostly Cloudy 41 5 20 -6.7 43 43 NNW 13 20 29.89 1012 10 16 0.00 0.00
11:53 pm 23:53 Cloudy 39 3.9 25 -3.9 57 57 NNW 15 24 29.89 1012 10 16 0.00 0.00

Powered by AerisWeather